TNU5532 WARR-WADD

Flight info

Callsign TNU5532
Flight time N/A
Altitude 25000
Route MOVMO
Aircraft A320/M-SDE3FGHIRWY/LB1

Departure

Time 2026-05-05 12:22
Airport Juanda International Airport (WARR)

Arrival

Time N/A
Airport Denpasar I Gusti Ngurah Rai International Airport (WADD)
Time Latitude Longitude Altitude Speed Heading
2026-05-05 12:04 -7.37558 112.79293 9 ft 0 kts
2026-05-05 12:12 -7.37571 112.79291 12 ft 4 kts
2026-05-05 12:12 -7.37598 112.79287 10 ft 4 kts
2026-05-05 12:13 -7.37624 112.79284 11 ft 4 kts
2026-05-05 12:13 -7.37642 112.79285 11 ft 2 kts 326°
2026-05-05 12:13 -7.37650 112.79293 10 ft 2 kts 290°
2026-05-05 12:13 -7.37654 112.79304 11 ft 2 kts 282°
2026-05-05 12:14 -7.37655 112.79310 10 ft 0 kts 281°
2026-05-05 12:15 -7.37652 112.79291 9 ft 6 kts 278°
2026-05-05 12:15 -7.37644 112.79241 9 ft 8 kts 279°
2026-05-05 12:15 -7.37633 112.79178 9 ft 10 kts 279°
2026-05-05 12:15 -7.37629 112.79117 9 ft 8 kts 252°
2026-05-05 12:16 -7.37681 112.79095 9 ft 11 kts 190°
2026-05-05 12:16 -7.37758 112.79082 9 ft 11 kts 188°
2026-05-05 12:16 -7.37830 112.79070 9 ft 10 kts 193°
2026-05-05 12:16 -7.37859 112.79016 9 ft 11 kts 271°
2026-05-05 12:17 -7.37846 112.78927 9 ft 14 kts 279°
2026-05-05 12:17 -7.37830 112.78827 9 ft 15 kts 279°
2026-05-05 12:17 -7.37813 112.78720 9 ft 16 kts 279°
2026-05-05 12:17 -7.37794 112.78600 9 ft 18 kts 279°
2026-05-05 12:18 -7.37772 112.78467 9 ft 20 kts 279°
2026-05-05 12:18 -7.37749 112.78320 9 ft 22 kts 279°
2026-05-05 12:18 -7.37723 112.78161 9 ft 24 kts 279°
2026-05-05 12:18 -7.37695 112.77989 9 ft 24 kts 279°
2026-05-05 12:19 -7.37669 112.77827 9 ft 22 kts 279°
2026-05-05 12:19 -7.37645 112.77678 10 ft 20 kts 279°
2026-05-05 12:19 -7.37624 112.77547 9 ft 17 kts 279°
2026-05-05 12:19 -7.37609 112.77457 9 ft 10 kts 279°
2026-05-05 12:20 -7.37625 112.77397 9 ft 9 kts 220°
2026-05-05 12:20 -7.37680 112.77379 8 ft 9 kts 189°
2026-05-05 12:20 -7.37739 112.77369 9 ft 8 kts 189°
2026-05-05 12:20 -7.37774 112.77386 9 ft 5 kts 113°
2026-05-05 12:21 -7.37778 112.77419 9 ft 5 kts 98°
2026-05-05 12:21 -7.37794 112.77516 9 ft 34 kts 99°
2026-05-05 12:21 -7.37875 112.78020 9 ft 107 kts 99°
2026-05-05 12:21 -7.38026 112.78950 52 ft 156 kts 100°
2026-05-05 12:22 -7.38222 112.80037 645 ft 160 kts 100°
2026-05-05 12:22 -7.38427 112.81167 1269 ft 168 kts 100°
2026-05-05 12:22 -7.38625 112.82390 1685 ft 188 kts 99°
2026-05-05 12:22 -7.38836 112.83762 2047 ft 208 kts 98°
2026-05-05 12:23 -7.39070 112.85288 2429 ft 232 kts 99°